Volver al catálogo

DELTA 1 DEB

ActivoPO
NORAD 21371·DEBRIS·🇺🇸 United States

Lanzado Jun 12, 1975 desde Vandenberg Space Force Base

Loading…

Próximos Pases (próximas 24 horas)

TLE

ActualizadoSource: Space-Track

Época: Sep 14, 2026, 02:26 UTC

1 21371U 75052CR  26257.10198405  .00000011  00000-0  13175-3 0  9995
2 21371  99.7661 319.3480 0151561 264.9405 122.6358 13.14313129693666

Sigue DELTA 1 DEB en tiempo real con AllMySat

Download on the App Store